owner,sensor,date,latitude,longitude,vertical_datum,direction_of_sea_water_velocity,sea_water_speed,upward_sea_water_velocity,qcFlag 
TABS,ioos:station:wmo:42045:1,2009-08-01T00:00:00Z,26.2168,-96.4998,2.0,24.94721181,42.13090196,-99999.0,'11111222,11111222,99999999' 
TABS,ioos:station:wmo:42045:1,2009-08-01T00:30:00Z,26.2168,-96.4998,2.0,13.1788835,42.4581912,-99999.0,'11111222,11111222,99999999' 
TABS,ioos:station:wmo:42045:1,2009-08-01T01:00:00Z,26.2168,-96.4998,2.0,10.44157672,41.65985358,-99999.0,'11111222,11111222,99999999' 
TABS,ioos:station:wmo:42045:1,2009-08-01T01:30:00Z,26.2168,-96.4998,2.0,9.608078432,48.53073768,-99999.0,'11111222,11111222,99999999' 
TABS,ioos:station:wmo:42045:1,2009-08-01T02:00:00Z,26.2168,-96.4998,2.0,7.843558683,53.12701196,-99999.0,'11111222,11111222,99999999' 
TABS,ioos:station:wmo:42045:1,2009-08-01T02:30:00Z,26.2168,-96.4998,2.0,4.791628268,56.50747296,-99999.0,'11111222,11111222,99999999' 
TABS,ioos:station:wmo:42045:1,2009-08-01T03:00:00Z,26.2168,-96.4998,2.0,7.989194543,61.4463514,-99999.0,'11111222,11111222,99999999' 
TABS,ioos:station:wmo:42045:1,2009-08-01T03:30:00Z,26.2168,-96.4998,2.0,7.140309802,56.47797801,-99999.0,'11111222,11111222,99999999' 
TABS,ioos:station:wmo:42045:1,2009-08-01T04:00:00Z,26.2168,-96.4998,2.0,4.634289702,56.19369805,-99999.0,'11111222,11111222,99999999' 
TABS,ioos:station:wmo:42045:1,2009-08-01T04:30:00Z,26.2168,-96.4998,2.0,8.732700517,57.43580155,-99999.0,'11111222,11111222,99999999' 
TABS,ioos:station:wmo:42045:1,2009-08-01T05:00:00Z,26.2168,-96.4998,2.0,8.428934238,59.1488715,-99999.0,'11111222,11111222,99999999' 
TABS,ioos:station:wmo:42045:1,2009-08-01T05:30:00Z,26.2168,-96.4998,2.0,10.98942875,64.47222813,-99999.0,'11111222,11111222,99999999' 
TABS,ioos:station:wmo:42045:1,2009-08-01T06:00:00Z,26.2168,-96.4998,2.0,13.55401571,68.27134758,-99999.0,'11111222,11111222,99999999' 
TABS,ioos:station:wmo:42045:1,2009-08-01T06:30:00Z,26.2168,-96.4998,2.0,13.19551548,68.25202488,-99999.0,'11111222,11111222,99999999' 
TABS,ioos:station:wmo:42045:1,2009-08-01T07:00:00Z,26.2168,-96.4998,2.0,13.45476935,70.95745345,-99999.0,'11111222,11111222,99999999' 
TABS,ioos:station:wmo:42045:1,2009-08-01T07:30:00Z,26.2168,-96.4998,2.0,14.34095233,73.92347733,-99999.0,'11111222,11111222,99999999' 
TABS,ioos:station:wmo:42045:1,2009-08-01T08:00:00Z,26.2168,-96.4998,2.0,15.2777024,76.24441357,-99999.0,'11111222,11111222,99999999' 
TABS,ioos:station:wmo:42045:1,2009-08-01T08:30:00Z,26.2168,-96.4998,2.0,14.12247638,64.59216052,-99999.0,'11111222,11111222,99999999' 
TABS,ioos:station:wmo:42045:1,2009-08-01T09:00:00Z,26.2168,-96.4998,2.0,21.69045925,83.30865621,-99999.0,'11111222,11111222,99999999' 
TABS,ioos:station:wmo:42045:1,2009-08-01T09:30:00Z,26.2168,-96.4998,2.0,16.24057494,78.7004047,-99999.0,'11111222,11111222,99999999' 
TABS,ioos:station:wmo:42045:1,2009-08-01T10:00:00Z,26.2168,-96.4998,2.0,19.59499278,79.04783995,-99999.0,'11111222,11111222,99999999' 
TABS,ioos:station:wmo:42045:1,2009-08-01T10:30:00Z,26.2168,-96.4998,2.0,19.00702464,75.71818606,-99999.0,'11111222,11111222,99999999' 
TABS,ioos:station:wmo:42045:1,2009-08-01T11:00:00Z,26.2168,-96.4998,2.0,20.69735821,75.06456754,-99999.0,'11111222,11111222,99999999' 
TABS,ioos:station:wmo:42045:1,2009-08-01T11:30:00Z,26.2168,-96.4998,2.0,20.08383924,64.73648817,-99999.0,'11111222,11111222,99999999' 
TABS,ioos:station:wmo:42045:1,2009-08-01T12:00:00Z,26.2168,-96.4998,2.0,15.33638673,70.02350534,-99999.0,'11111222,11111222,99999999' 
TABS,ioos:station:wmo:42045:1,2009-08-01T12:30:00Z,26.2168,-96.4998,2.0,17.30326186,66.43660512,-99999.0,'11111222,11111222,99999999' 
TABS,ioos:station:wmo:42045:1,2009-08-01T13:00:00Z,26.2168,-96.4998,2.0,18.84445814,68.60736477,-99999.0,'11111222,11111222,99999999' 
TABS,ioos:station:wmo:42045:1,2009-08-01T13:30:00Z,26.2168,-96.4998,2.0,20.9455517,60.28343471,-99999.0,'11111222,11111222,99999999' 
TABS,ioos:station:wmo:42045:1,2009-08-01T14:00:00Z,26.2168,-96.4998,2.0,13.07176852,65.83592484,-99999.0,'11111222,11111222,99999999' 
TABS,ioos:station:wmo:42045:1,2009-08-01T14:30:00Z,26.2168,-96.4998,2.0,14.88275486,62.72413013,-99999.0,'11111222,11111222,99999999' 
TABS,ioos:station:wmo:42045:1,2009-08-01T15:00:00Z,26.2168,-96.4998,2.0,19.48892103,63.27522896,-99999.0,'11111222,11111222,99999999' 
TABS,ioos:station:wmo:42045:1,2009-08-01T15:30:00Z,26.2168,-96.4998,2.0,18.96510115,61.87893422,-99999.0,'11111222,11111222,99999999' 
TABS,ioos:station:wmo:42045:1,2009-08-01T16:00:00Z,26.2168,-96.4998,2.0,21.19741612,57.94016655,-99999.0,'11111222,11111222,99999999' 
TABS,ioos:station:wmo:42045:1,2009-08-01T16:30:00Z,26.2168,-96.4998,2.0,24.93293712,54.32271716,-99999.0,'11111222,11111222,99999999' 
TABS,ioos:station:wmo:42045:1,2009-08-01T17:00:00Z,26.2168,-96.4998,2.0,22.95004899,54.75398524,-99999.0,'11111222,11111222,99999999' 
TABS,ioos:station:wmo:42045:1,2009-08-01T17:30:00Z,26.2168,-96.4998,2.0,23.11363739,53.03735288,-99999.0,'11111222,11111222,99999999' 
TABS,ioos:station:wmo:42045:1,2009-08-01T18:00:00Z,26.2168,-96.4998,2.0,23.97247134,47.35473049,-99999.0,'11111222,11111222,99999999' 
TABS,ioos:station:wmo:42045:1,2009-08-01T18:30:00Z,26.2168,-96.4998,2.0,25.73438083,44.1043694,-99999.0,'11111222,11111222,99999999' 
TABS,ioos:station:wmo:42045:1,2009-08-01T19:00:00Z,26.2168,-96.4998,2.0,29.47248065,42.76393925,-99999.0,'11111222,11111222,99999999' 
TABS,ioos:station:wmo:42045:1,2009-08-01T19:30:00Z,26.2168,-96.4998,2.0,31.05593002,41.63819521,-99999.0,'11111222,11111222,99999999' 
TABS,ioos:station:wmo:42045:1,2009-08-01T20:00:00Z,26.2168,-96.4998,2.0,37.24388702,36.78078303,-99999.0,'11111222,11111222,99999999' 
TABS,ioos:station:wmo:42045:1,2009-08-01T20:30:00Z,26.2168,-96.4998,2.0,50.32357813,27.28472833,-99999.0,'11111222,11111222,99999999' 
TABS,ioos:station:wmo:42045:1,2009-08-01T21:00:00Z,26.2168,-96.4998,2.0,46.57799753,22.08424778,-99999.0,'11111222,11111222,99999999' 
TABS,ioos:station:wmo:42045:1,2009-08-01T21:30:00Z,26.2168,-96.4998,2.0,51.08206119,18.01951165,-99999.0,'11111222,11111222,99999999' 
TABS,ioos:station:wmo:42045:1,2009-08-01T22:00:00Z,26.2168,-96.4998,2.0,56.33917676,10.89708677,-99999.0,'11111222,11111222,99999999' 
TABS,ioos:station:wmo:42045:1,2009-08-01T22:30:00Z,26.2168,-96.4998,2.0,27.89741625,7.309445943,-99999.0,'11133222,11111222,99999999' 
TABS,ioos:station:wmo:42045:1,2009-08-01T23:00:00Z,26.2168,-96.4998,2.0,313.2104093,3.622154055,-99999.0,'11133222,11111222,99999999' 
TABS,ioos:station:wmo:42045:1,2009-08-01T23:30:00Z,26.2168,-96.4998,2.0,25.89002956,2.656633208,-99999.0,'11133222,11111222,99999999' 
TABS,ioos:station:wmo:42045:1,2009-08-02T00:00:00Z,26.2168,-96.4998,2.0,286.8727591,4.754671387,-99999.0,'11133222,11111222,99999999' 
TABS,ioos:station:wmo:42045:1,2009-08-02T00:30:00Z,26.2168,-96.4998,2.0,307.6057367,10.43886009,-99999.0,'11111222,11111222,99999999' 
TABS,ioos:station:wmo:42045:1,2009-08-02T01:00:00Z,26.2168,-96.4998,2.0,302.5744019,14.52480637,-99999.0,'11111222,11111222,99999999' 
TABS,ioos:station:wmo:42045:1,2009-08-02T01:30:00Z,26.2168,-96.4998,2.0,296.3467254,17.57562232,-99999.0,'11111222,11111222,99999999' 
TABS,ioos:station:wmo:42045:1,2009-08-02T02:00:00Z,26.2168,-96.4998,2.0,323.6383169,22.78689536,-99999.0,'11111222,11111222,99999999' 
TABS,ioos:station:wmo:42045:1,2009-08-02T02:30:00Z,26.2168,-96.4998,2.0,327.4619648,28.14840138,-99999.0,'11111222,11111222,99999999' 
TABS,ioos:station:wmo:42045:1,2009-08-02T03:00:00Z,26.2168,-96.4998,2.0,325.4573808,32.60888989,-99999.0,'11111222,11111222,99999999' 
TABS,ioos:station:wmo:42045:1,2009-08-02T03:30:00Z,26.2168,-96.4998,2.0,337.9952992,33.97503348,-99999.0,'11111222,11111222,99999999' 
TABS,ioos:station:wmo:42045:1,2009-08-02T04:00:00Z,26.2168,-96.4998,2.0,332.1745688,34.96267724,-99999.0,'11111222,11111222,99999999' 
TABS,ioos:station:wmo:42045:1,2009-08-02T04:30:00Z,26.2168,-96.4998,2.0,332.8786241,35.90847393,-99999.0,'11111222,11111222,99999999' 
TABS,ioos:station:wmo:42045:1,2009-08-02T05:00:00Z,26.2168,-96.4998,2.0,340.7389374,38.59012568,-99999.0,'11111222,11111222,99999999' 
TABS,ioos:station:wmo:42045:1,2009-08-02T05:30:00Z,26.2168,-96.4998,2.0,339.558859,36.85047897,-99999.0,'11111222,11111222,99999999' 
TABS,ioos:station:wmo:42045:1,2009-08-02T06:00:00Z,26.2168,-96.4998,2.0,347.8076957,40.10462442,-99999.0,'11111222,11111222,99999999' 
TABS,ioos:station:wmo:42045:1,2009-08-02T06:30:00Z,26.2168,-96.4998,2.0,344.2585494,43.27297193,-99999.0,'11111222,11111222,99999999' 
TABS,ioos:station:wmo:42045:1,2009-08-02T07:00:00Z,26.2168,-96.4998,2.0,347.964796,39.80496075,-99999.0,'11111222,11111222,99999999' 
TABS,ioos:station:wmo:42045:1,2009-08-02T07:30:00Z,26.2168,-96.4998,2.0,352.1122257,39.49368051,-99999.0,'11111222,11111222,99999999' 
TABS,ioos:station:wmo:42045:1,2009-08-02T08:00:00Z,26.2168,-96.4998,2.0,351.5830159,34.43087568,-99999.0,'11111222,11111222,99999999' 
TABS,ioos:station:wmo:42045:1,2009-08-02T08:30:00Z,26.2168,-96.4998,2.0,357.8072084,32.14354212,-99999.0,'11111222,11111222,99999999' 
TABS,ioos:station:wmo:42045:1,2009-08-02T09:00:00Z,26.2168,-96.4998,2.0,352.8568422,34.82027283,-99999.0,'11111222,11111222,99999999' 
TABS,ioos:station:wmo:42045:1,2009-08-02T09:30:00Z,26.2168,-96.4998,2.0,1.487341418,30.44025296,-99999.0,'11111222,11111222,99999999' 
TABS,ioos:station:wmo:42045:1,2009-08-02T10:00:00Z,26.2168,-96.4998,2.0,1.256742974,30.09723741,-99999.0,'11111222,11111222,99999999' 
TABS,ioos:station:wmo:42045:1,2009-08-02T10:30:00Z,26.2168,-96.4998,2.0,4.396274028,33.39825744,-99999.0,'11111222,11111222,99999999' 
TABS,ioos:station:wmo:42045:1,2009-08-02T11:00:00Z,26.2168,-96.4998,2.0,4.925165893,32.1486936,-99999.0,'11111222,11111222,99999999' 
TABS,ioos:station:wmo:42045:1,2009-08-02T11:30:00Z,26.2168,-96.4998,2.0,7.135534616,27.53323083,-99999.0,'11111222,11111222,99999999' 
TABS,ioos:station:wmo:42045:1,2009-08-02T12:00:00Z,26.2168,-96.4998,2.0,6.789169158,29.60760038,-99999.0,'11111222,11111222,99999999' 
TABS,ioos:station:wmo:42045:1,2009-08-02T12:30:00Z,26.2168,-96.4998,2.0,9.804946621,31.3580229,-99999.0,'11111222,11111222,99999999' 
TABS,ioos:station:wmo:42045:1,2009-08-02T13:00:00Z,26.2168,-96.4998,2.0,22.44759536,31.95091391,-99999.0,'11111222,11111222,99999999' 
TABS,ioos:station:wmo:42045:1,2009-08-02T13:30:00Z,26.2168,-96.4998,2.0,25.02487531,30.94494628,-99999.0,'11111222,11111222,99999999' 
TABS,ioos:station:wmo:42045:1,2009-08-02T14:00:00Z,26.2168,-96.4998,2.0,32.1561125,33.87658926,-99999.0,'11111222,11111222,99999999' 
TABS,ioos:station:wmo:42045:1,2009-08-02T14:30:00Z,26.2168,-96.4998,2.0,36.09112605,30.45481407,-99999.0,'11111222,11111222,99999999' 
TABS,ioos:station:wmo:42045:1,2009-08-02T15:00:00Z,26.2168,-96.4998,2.0,36.29925057,33.32765368,-99999.0,'11111222,11111222,99999999' 
TABS,ioos:station:wmo:42045:1,2009-08-02T15:30:00Z,26.2168,-96.4998,2.0,38.49970073,28.48152032,-99999.0,'11111222,11111222,99999999' 
TABS,ioos:station:wmo:42045:1,2009-08-02T16:00:00Z,26.2168,-96.4998,2.0,38.6630884,28.31586481,-99999.0,'11111222,11111222,99999999' 
TABS,ioos:station:wmo:42045:1,2009-08-02T16:30:00Z,26.2168,-96.4998,2.0,47.21952944,27.75354752,-99999.0,'11111222,11111222,99999999' 
TABS,ioos:station:wmo:42045:1,2009-08-02T17:00:00Z,26.2168,-96.4998,2.0,51.97789749,25.26110845,-99999.0,'11111222,11111222,99999999' 
TABS,ioos:station:wmo:42045:1,2009-08-02T17:30:00Z,26.2168,-96.4998,2.0,67.11360627,20.00483192,-99999.0,'11111222,11111222,99999999' 
TABS,ioos:station:wmo:42045:1,2009-08-02T18:00:00Z,26.2168,-96.4998,2.0,66.97629589,22.8067205,-99999.0,'11111222,11111222,99999999' 
TABS,ioos:station:wmo:42045:1,2009-08-02T18:30:00Z,26.2168,-96.4998,2.0,90.44365211,18.08054203,-99999.0,'11111222,11111222,99999999' 
TABS,ioos:station:wmo:42045:1,2009-08-02T19:00:00Z,26.2168,-96.4998,2.0,90.15385475,18.62006713,-99999.0,'11111222,11111222,99999999' 
TABS,ioos:station:wmo:42045:1,2009-08-02T19:30:00Z,26.2168,-96.4998,2.0,104.0576189,19.47318669,-99999.0,'11111222,11111222,99999999' 
TABS,ioos:station:wmo:42045:1,2009-08-02T20:00:00Z,26.2168,-96.4998,2.0,112.245105,18.7019384,-99999.0,'11111222,11111222,99999999' 
TABS,ioos:station:wmo:42045:1,2009-08-02T20:30:00Z,26.2168,-96.4998,2.0,107.615672,16.58784193,-99999.0,'11111222,11111222,99999999' 
TABS,ioos:station:wmo:42045:1,2009-08-02T21:00:00Z,26.2168,-96.4998,2.0,118.1676615,21.58650041,-99999.0,'11111222,11111222,99999999' 
TABS,ioos:station:wmo:42045:1,2009-08-02T21:30:00Z,26.2168,-96.4998,2.0,126.0561669,20.42205915,-99999.0,'11111222,11111222,99999999' 
TABS,ioos:station:wmo:42045:1,2009-08-02T22:00:00Z,26.2168,-96.4998,2.0,128.2887294,17.60739901,-99999.0,'11111222,11111222,99999999' 
TABS,ioos:station:wmo:42045:1,2009-08-02T22:30:00Z,26.2168,-96.4998,2.0,136.2021159,14.49180803,-99999.0,'11111222,11111222,99999999' 
TABS,ioos:station:wmo:42045:1,2009-08-02T23:00:00Z,26.2168,-96.4998,2.0,142.1738977,9.229284913,-99999.0,'11133222,11111222,99999999' 
TABS,ioos:station:wmo:42045:1,2009-08-02T23:30:00Z,26.2168,-96.4998,2.0,190.3767272,7.106229661,-99999.0,'11133222,11111222,99999999' 
TABS,ioos:station:wmo:42045:1,2009-08-03T00:00:00Z,26.2168,-96.4998,2.0,212.2589624,6.220128616,-99999.0,'11133222,11111222,99999999' 
TABS,ioos:station:wmo:42045:1,2009-08-03T00:30:00Z,26.2168,-96.4998,2.0,220.8538483,9.585165622,-99999.0,'11133222,11111222,99999999' 
TABS,ioos:station:wmo:42045:1,2009-08-03T01:00:00Z,26.2168,-96.4998,2.0,231.502725,10.98843028,-99999.0,'11111222,11111222,99999999' 
TABS,ioos:station:wmo:42045:1,2009-08-03T01:30:00Z,26.2168,-96.4998,2.0,251.1513565,16.21974414,-99999.0,'11111222,11111222,99999999' 
TABS,ioos:station:wmo:42045:1,2009-08-03T02:00:00Z,26.2168,-96.4998,2.0,275.5942189,14.15741855,-99999.0,'11111222,11111222,99999999' 
TABS,ioos:station:wmo:42045:1,2009-08-03T02:30:00Z,26.2168,-96.4998,2.0,270.328029,15.7402573,-99999.0,'11111222,11111222,99999999' 
TABS,ioos:station:wmo:42045:1,2009-08-03T03:00:00Z,26.2168,-96.4998,2.0,282.2339602,13.26113494,-99999.0,'11111222,11111222,99999999' 
TABS,ioos:station:wmo:42045:1,2009-08-03T03:30:00Z,26.2168,-96.4998,2.0,300.8252068,19.80814479,-99999.0,'11111222,11111222,99999999' 
TABS,ioos:station:wmo:42045:1,2009-08-03T04:00:00Z,26.2168,-96.4998,2.0,313.3592365,25.67850852,-99999.0,'11111222,11111222,99999999' 
TABS,ioos:station:wmo:42045:1,2009-08-03T04:30:00Z,26.2168,-96.4998,2.0,321.684893,21.56486262,-99999.0,'11111222,11111222,99999999' 
TABS,ioos:station:wmo:42045:1,2009-08-03T05:00:00Z,26.2168,-96.4998,2.0,335.8943202,25.95334468,-99999.0,'11111222,11111222,99999999' 
TABS,ioos:station:wmo:42045:1,2009-08-03T05:30:00Z,26.2168,-96.4998,2.0,343.330968,23.81060688,-99999.0,'11111222,11111222,99999999' 
TABS,ioos:station:wmo:42045:1,2009-08-03T06:00:00Z,26.2168,-96.4998,2.0,346.839399,26.35214602,-99999.0,'11111222,11111222,99999999' 
TABS,ioos:station:wmo:42045:1,2009-08-03T06:30:00Z,26.2168,-96.4998,2.0,344.3295706,24.06447382,-99999.0,'11111222,11111222,99999999' 
TABS,ioos:station:wmo:42045:1,2009-08-03T07:00:00Z,26.2168,-96.4998,2.0,350.3833901,29.86976063,-99999.0,'11111222,11111222,99999999' 
TABS,ioos:station:wmo:42045:1,2009-08-03T07:30:00Z,26.2168,-96.4998,2.0,355.4862326,30.87577206,-99999.0,'11111222,11111222,99999999' 
TABS,ioos:station:wmo:42045:1,2009-08-03T08:00:00Z,26.2168,-96.4998,2.0,355.867804,30.5293711,-99999.0,'11111222,11111222,99999999' 
TABS,ioos:station:wmo:42045:1,2009-08-03T08:30:00Z,26.2168,-96.4998,2.0,3.619609727,34.84951076,-99999.0,'11111222,11111222,99999999' 
TABS,ioos:station:wmo:42045:1,2009-08-03T09:00:00Z,26.2168,-96.4998,2.0,7.958280241,32.50301678,-99999.0,'11111222,11111222,99999999' 
TABS,ioos:station:wmo:42045:1,2009-08-03T09:30:00Z,26.2168,-96.4998,2.0,9.149348295,34.5900636,-99999.0,'11111222,11111222,99999999' 
TABS,ioos:station:wmo:42045:1,2009-08-03T10:00:00Z,26.2168,-96.4998,2.0,15.59188283,34.93557785,-99999.0,'11111222,11111222,99999999' 
TABS,ioos:station:wmo:42045:1,2009-08-03T10:30:00Z,26.2168,-96.4998,2.0,20.16108472,34.96219244,-99999.0,'11111222,11111222,99999999' 
TABS,ioos:station:wmo:42045:1,2009-08-03T11:00:00Z,26.2168,-96.4998,2.0,27.45311034,36.93980644,-99999.0,'11111222,11111222,99999999' 
TABS,ioos:station:wmo:42045:1,2009-08-03T11:30:00Z,26.2168,-96.4998,2.0,31.55548864,36.7077989,-99999.0,'11111222,11111222,99999999' 
TABS,ioos:station:wmo:42045:1,2009-08-03T12:00:00Z,26.2168,-96.4998,2.0,30.20144458,34.4108079,-99999.0,'11111222,11111222,99999999' 
TABS,ioos:station:wmo:42045:1,2009-08-03T12:30:00Z,26.2168,-96.4998,2.0,35.02562356,32.25070852,-99999.0,'11111222,11111222,99999999' 
TABS,ioos:station:wmo:42045:1,2009-08-03T13:00:00Z,26.2168,-96.4998,2.0,35.74876479,31.88810593,-99999.0,'11111222,11111222,99999999' 
TABS,ioos:station:wmo:42045:1,2009-08-03T13:30:00Z,26.2168,-96.4998,2.0,34.82577791,35.26644439,-99999.0,'11111222,11111222,99999999' 
TABS,ioos:station:wmo:42045:1,2009-08-03T14:00:00Z,26.2168,-96.4998,2.0,46.06344159,27.81529975,-99999.0,'11111222,11111222,99999999' 
TABS,ioos:station:wmo:42045:1,2009-08-03T14:30:00Z,26.2168,-96.4998,2.0,48.67287294,30.13514394,-99999.0,'11111222,11111222,99999999' 
TABS,ioos:station:wmo:42045:1,2009-08-03T15:00:00Z,26.2168,-96.4998,2.0,57.48605979,32.8368482,-99999.0,'11111222,11111222,99999999' 
TABS,ioos:station:wmo:42045:1,2009-08-03T15:30:00Z,26.2168,-96.4998,2.0,67.02324017,32.22677924,-99999.0,'11111222,11111222,99999999' 
TABS,ioos:station:wmo:42045:1,2009-08-03T16:00:00Z,26.2168,-96.4998,2.0,56.06795853,33.48200263,-99999.0,'11111222,11111222,99999999' 
TABS,ioos:station:wmo:42045:1,2009-08-03T16:30:00Z,26.2168,-96.4998,2.0,66.78696847,36.33117807,-99999.0,'11111222,11111222,99999999' 
TABS,ioos:station:wmo:42045:1,2009-08-03T17:00:00Z,26.2168,-96.4998,2.0,74.17568015,33.81137826,-99999.0,'11111222,11111222,99999999' 
TABS,ioos:station:wmo:42045:1,2009-08-03T17:30:00Z,26.2168,-96.4998,2.0,73.95443413,37.69866443,-99999.0,'11111222,11111222,99999999' 
TABS,ioos:station:wmo:42045:1,2009-08-03T18:00:00Z,26.2168,-96.4998,2.0,81.56871569,38.73867318,-99999.0,'11111222,11111222,99999999' 
TABS,ioos:station:wmo:42045:1,2009-08-03T18:30:00Z,26.2168,-96.4998,2.0,81.60392207,38.07811051,-99999.0,'11111222,11111222,99999999' 
TABS,ioos:station:wmo:42045:1,2009-08-03T19:00:00Z,26.2168,-96.4998,2.0,80.85054571,34.0228776,-99999.0,'11111222,11111222,99999999' 
TABS,ioos:station:wmo:42045:1,2009-08-03T19:30:00Z,26.2168,-96.4998,2.0,86.63565895,31.86491801,-99999.0,'11111222,11111222,99999999' 
TABS,ioos:station:wmo:42045:1,2009-08-03T20:00:00Z,26.2168,-96.4998,2.0,88.14971337,27.56437193,-99999.0,'11111222,11111222,99999999' 
TABS,ioos:station:wmo:42045:1,2009-08-03T20:30:00Z,26.2168,-96.4998,2.0,94.30088251,29.2022345,-99999.0,'11111222,11111222,99999999' 
TABS,ioos:station:wmo:42045:1,2009-08-03T21:00:00Z,26.2168,-96.4998,2.0,97.3668707,25.26858128,-99999.0,'11111222,11111222,99999999' 
TABS,ioos:station:wmo:42045:1,2009-08-03T21:30:00Z,26.2168,-96.4998,2.0,100.0306268,26.3528101,-99999.0,'11111222,11111222,99999999' 
TABS,ioos:station:wmo:42045:1,2009-08-03T22:00:00Z,26.2168,-96.4998,2.0,107.4139912,24.49256622,-99999.0,'11111222,11111222,99999999' 
TABS,ioos:station:wmo:42045:1,2009-08-03T22:30:00Z,26.2168,-96.4998,2.0,119.8437615,19.39161932,-99999.0,'11111222,11111222,99999999' 
TABS,ioos:station:wmo:42045:1,2009-08-03T23:00:00Z,26.2168,-96.4998,2.0,111.6611002,19.72276096,-99999.0,'11111222,11111222,99999999' 
TABS,ioos:station:wmo:42045:1,2009-08-03T23:30:00Z,26.2168,-96.4998,2.0,124.9701767,17.25548319,-99999.0,'11111222,11111222,99999999' 
TABS,ioos:station:wmo:42045:1,2009-08-04T00:00:00Z,26.2168,-96.4998,2.0,136.7750645,18.03280622,-99999.0,'11111222,11111222,99999999' 
TABS,ioos:station:wmo:42045:1,2009-08-04T00:30:00Z,26.2168,-96.4998,2.0,140.1943115,15.69860185,-99999.0,'11111222,11111222,99999999' 
TABS,ioos:station:wmo:42045:1,2009-08-04T01:00:00Z,26.2168,-96.4998,2.0,142.4800965,12.16678265,-99999.0,'11111222,11111222,99999999' 
TABS,ioos:station:wmo:42045:1,2009-08-04T01:30:00Z,26.2168,-96.4998,2.0,157.5987975,7.452362042,-99999.0,'11133222,11111222,99999999' 
TABS,ioos:station:wmo:42045:1,2009-08-04T02:00:00Z,26.2168,-96.4998,2.0,209.4107851,4.68363107,-99999.0,'11133222,11111222,99999999' 
TABS,ioos:station:wmo:42045:1,2009-08-04T02:30:00Z,26.2168,-96.4998,2.0,226.5828293,5.630719315,-99999.0,'11133222,11111222,99999999' 
TABS,ioos:station:wmo:42045:1,2009-08-04T03:00:00Z,26.2168,-96.4998,2.0,265.328212,5.157130985,-99999.0,'11133222,11111222,99999999' 
TABS,ioos:station:wmo:42045:1,2009-08-04T03:30:00Z,26.2168,-96.4998,2.0,271.3720264,7.10203492,-99999.0,'11133222,11111222,99999999' 
TABS,ioos:station:wmo:42045:1,2009-08-04T04:00:00Z,26.2168,-96.4998,2.0,280.6369254,8.343356639,-99999.0,'11133222,11111222,99999999' 
TABS,ioos:station:wmo:42045:1,2009-08-04T04:30:00Z,26.2168,-96.4998,2.0,301.3331388,10.38445473,-99999.0,'11111222,11111222,99999999' 
TABS,ioos:station:wmo:42045:1,2009-08-04T05:00:00Z,26.2168,-96.4998,2.0,304.955657,14.06785343,-99999.0,'11111222,11111222,99999999' 
TABS,ioos:station:wmo:42045:1,2009-08-04T05:30:00Z,26.2168,-96.4998,2.0,324.3003494,17.23959396,-99999.0,'11111222,11111222,99999999' 
TABS,ioos:station:wmo:42045:1,2009-08-04T06:00:00Z,26.2168,-96.4998,2.0,327.3062524,17.55059258,-99999.0,'11111222,11111222,99999999' 
TABS,ioos:station:wmo:42045:1,2009-08-04T06:30:00Z,26.2168,-96.4998,2.0,334.116009,19.19576255,-99999.0,'11111222,11111222,99999999' 
TABS,ioos:station:wmo:42045:1,2009-08-04T07:00:00Z,26.2168,-96.4998,2.0,347.6563478,21.84501087,-99999.0,'11111222,11111222,99999999' 
TABS,ioos:station:wmo:42045:1,2009-08-04T07:30:00Z,26.2168,-96.4998,2.0,355.6409222,23.41774754,-99999.0,'11111222,11111222,99999999' 
TABS,ioos:station:wmo:42045:1,2009-08-04T08:00:00Z,26.2168,-96.4998,2.0,348.0865457,28.28936196,-99999.0,'11111222,11111222,99999999' 
TABS,ioos:station:wmo:42045:1,2009-08-04T08:30:00Z,26.2168,-96.4998,2.0,351.6866236,28.70161145,-99999.0,'11111222,11111222,99999999' 
TABS,ioos:station:wmo:42045:1,2009-08-04T09:00:00Z,26.2168,-96.4998,2.0,359.507553,31.40116081,-99999.0,'11111222,11144222,99999999' 
TABS,ioos:station:wmo:42045:1,2009-08-04T09:30:00Z,26.2168,-96.4998,2.0,0.434381893,35.631023,-99999.0,'11111222,11111222,99999999' 
TABS,ioos:station:wmo:42045:1,2009-08-04T10:00:00Z,26.2168,-96.4998,2.0,13.87989913,32.84914763,-99999.0,'11111222,11111222,99999999' 
TABS,ioos:station:wmo:42045:1,2009-08-04T10:30:00Z,26.2168,-96.4998,2.0,18.38363762,35.19616456,-99999.0,'11111222,11111222,99999999' 
TABS,ioos:station:wmo:42045:1,2009-08-04T11:00:00Z,26.2168,-96.4998,2.0,19.33237879,36.55092475,-99999.0,'11111222,11111222,99999999' 
TABS,ioos:station:wmo:42045:1,2009-08-04T11:30:00Z,26.2168,-96.4998,2.0,32.84767691,34.32855954,-99999.0,'11111222,11111222,99999999' 
TABS,ioos:station:wmo:42045:1,2009-08-04T12:00:00Z,26.2168,-96.4998,2.0,32.98099002,36.29958815,-99999.0,'11111222,11111222,99999999' 
TABS,ioos:station:wmo:42045:1,2009-08-04T12:30:00Z,26.2168,-96.4998,2.0,37.8088878,34.9086866,-99999.0,'11111222,11111222,99999999' 
TABS,ioos:station:wmo:42045:1,2009-08-04T13:00:00Z,26.2168,-96.4998,2.0,45.56639528,32.91035703,-99999.0,'11111222,11111222,99999999' 
TABS,ioos:station:wmo:42045:1,2009-08-04T13:30:00Z,26.2168,-96.4998,2.0,42.10443492,37.09268526,-99999.0,'11111222,11111222,99999999' 
TABS,ioos:station:wmo:42045:1,2009-08-04T14:00:00Z,26.2168,-96.4998,2.0,45.55463346,36.53084724,-99999.0,'11111222,11111222,99999999' 
TABS,ioos:station:wmo:42045:1,2009-08-04T14:30:00Z,26.2168,-96.4998,2.0,43.98246801,36.23079491,-99999.0,'11111222,11111222,99999999' 
TABS,ioos:station:wmo:42045:1,2009-08-04T15:00:00Z,26.2168,-96.4998,2.0,48.98989471,33.74005335,-99999.0,'11111222,11111222,99999999' 
TABS,ioos:station:wmo:42045:1,2009-08-04T15:30:00Z,26.2168,-96.4998,2.0,49.45181908,35.16444227,-99999.0,'11111222,11111222,99999999' 
TABS,ioos:station:wmo:42045:1,2009-08-04T16:00:00Z,26.2168,-96.4998,2.0,62.41866161,36.30603944,-99999.0,'11111222,11111222,99999999' 